Hermosillo, Mexico

10:59 AM MDT on October 01, 2016 (GMT -0600)
Gen Ignacio Pesqueira Garcia

Weather History for MMHO - February, 2013

Change the Weather History Date:

Tuesday, February 12, 2013

  Actual Average Record
Temperature  
Mean Temperature 54 °F -  
Max Temperature 70 °F 77 °F 96 °F (2016)
Min Temperature 38 °F 48 °F 38 °F (2013)
Degree Days  
Heating Degree Days 11    
Growing Degree Days 4 (Base 50)    
Moisture  
Dew Point 28 °F    
Average Humidity 45    
Maximum Humidity 87    
Minimum Humidity 9    
Precipitation  
Precipitation 0.00 in - - ()
Sea Level Pressure  
Sea Level Pressure 30.14 in    
Wind  
Wind Speed 3 mph ()    
Max Wind Speed 8 mph    
Max Gust Speed -    
Visibility 10.1 miles    
Events      
Averages and records for this station are not official NWS values.
T = Trace of Precipitation, MM = Missing Value Source: Averaged Metar Reports

Daily Weather History Graph

Daily Weather History Graph

Search for Another Location

Airport or City:

Trip Planner

Search our weather history database for the weather conditions in past years. The results will help you decide how hot, cold, wet, or windy it might be!

Date:

Astronomy

Feb. 12, 2013 Rise Set
Actual Time 7:05 AM MST 6:12 PM MST
Civil Twilight 6:40 AM MST 6:36 PM MST
Nautical Twilight 6:12 AM MST 7:04 PM MST
Astronomical Twilight 5:45 AM MST 7:31 PM MST
Moon 8:21 AM MST (2/12) 8:56 PM MST (2/12)
Length of Visible Light 11h 55m
Length of Day
11h 06m
Waxing Crescent, 8% of the Moon is Illuminated
Feb 12
Waxing Crescent
Feb 17
First Quarter
Feb 25
Full
Mar 4
Last Quarter
Mar 11
New

Hourly Weather History & Observations

Time (MST) Temp. Windchill Dew Point Humidity Pressure Visibility Wind Dir Wind Speed Gust Speed Precip Events Conditions
12:43 AM 46.4 °F 44.3 °F 37.4 °F 71% 30.16 in 10.0 mi NNW 4.6 mph - N/A   Clear
1:30 AM 49 °F - 42 °F 69% 30.17 in 5 mi ENE 4.5 mph - -  
1:44 AM 44.6 °F - 35.6 °F 71% 30.16 in 10.0 mi Calm Calm - N/A   Clear
2:43 AM 44.6 °F 42.2 °F 37.4 °F 76% 30.17 in 10.0 mi South 4.6 mph - N/A   Clear
3:43 AM 42.8 °F - 35.6 °F 76% 30.16 in 10.0 mi Calm Calm - N/A   Clear
4:30 AM 43 °F - 37 °F 72% 30.17 in 5 mi ENE 2.2 mph - -  
4:46 AM 42.8 °F - 35.6 °F 76% 30.15 in 10.0 mi Calm Calm - N/A   Clear
5:43 AM 42.8 °F - 35.6 °F 76% 30.17 in 10.0 mi Calm Calm - N/A   Clear
6:42 AM 39.2 °F - 35.6 °F 87% 30.17 in 10.0 mi Calm Calm - N/A   Clear
7:35 AM 38 °F - 34 °F 81% 30.20 in 7 mi NNE 2.2 mph - -  
7:42 AM 41.0 °F - 35.6 °F 81% 30.19 in 10.0 mi Calm Calm - N/A   Clear
8:44 AM 46.4 °F - 35.6 °F 66% 30.21 in 10.0 mi Calm Calm - N/A   Clear
9:45 AM 51.8 °F - 35.6 °F 54% 30.21 in 10.0 mi Calm Calm - N/A   Clear
10:48 AM 57.2 °F - 32.0 °F 38% 30.21 in 10.0 mi SE 5.8 mph - N/A   Clear
10:50 AM 57 °F - 35 °F 31% 30.22 in 7 mi NNE 4.5 mph - -  
11:48 AM 60.8 °F - 32.0 °F 34% 30.19 in 10.0 mi Calm Calm - N/A   Clear
12:42 PM 64.4 °F - 33.8 °F 32% 30.16 in 10.0 mi ESE 5.8 mph - N/A   Clear
1:40 PM 68.0 °F - 17.6 °F 15% 29.99 in 10.0 mi WNW 8.1 mph - N/A   Clear
2:45 PM 69.8 °F - 12.2 °F 11% 30.09 in 15.0 mi WNW 5.8 mph - N/A   Clear
3:52 PM 69.8 °F - 8.6 °F 9% 30.07 in 15.0 mi WNW 8.1 mph - N/A   Clear
4:35 PM 69 °F - 27 °F 11% 30.05 in 7 mi NE 2.2 mph - -  
4:45 PM 69.8 °F - 10.4 °F 10% 30.09 in 15.0 mi West 4.6 mph - N/A   Clear
5:46 PM 66.2 °F - 14.0 °F 13% 30.07 in 15.0 mi West 8.1 mph - N/A   Clear
6:43 PM 62.6 °F - 15.8 °F 16% 30.07 in 12.0 mi Calm Calm - N/A   Clear
7:42 PM 59.0 °F - 17.6 °F 20% 30.11 in 10.0 mi WNW 6.9 mph - N/A   Clear
8:41 PM 59.0 °F - 21.2 °F 23% 30.09 in 10.0 mi WNW 8.1 mph - N/A   Clear
9:42 PM 55.4 °F - 21.2 °F 26% 30.10 in 10.0 mi WNW 6.9 mph - N/A   Clear
10:42 PM 50.0 °F - 19.4 °F 30% 30.10 in 10.0 mi West 5.8 mph - N/A   Clear
11:43 PM 48.2 °F - 19.4 °F 32% 30.10 in 10.0 mi WSW 5.8 mph - N/A   Clear